GW4081 Weather Reports


Display with metric or nautical units.
time (UTC)temp
F
wind
direction
speed
MPH
gust
MPH
rain 1hr
in
rain 24hr
in
rain mn
in
humidity
%
barometer
mb
20260505224103 53 5 4.0 13.0 0.00 0.00 0.00 76 1008.9
20260505223604 53 27 4.0 13.0 0.00 0.00 0.00 76 1008.9
20260505222604 53 13 5.0 15.0 0.00 0.00 0.00 76 1009.0
20260505221604 53 32 9.0 17.0 0.00 0.00 0.00 75 1008.7
20260505221103 53 4 7.0 21.0 0.00 0.00 0.00 76 1008.4
20260505220604 54 10 7.0 21.0 0.00 0.00 0.00 75 1008.6
20260505220103 54 11 4.0 17.0 0.00 0.00 0.00 75 1008.4
20260505215104 54 51 8.0 20.0 0.00 0.00 0.00 75 1008.5
20260505214603 54 53 7.0 17.0 0.00 0.00 0.00 75 1008.3
20260505213605 54 20 9.0 18.0 0.00 0.00 0.00 74 1007.7
20260505213105 55 24 8.0 18.0 0.00 0.00 0.00 74 1007.7
20260505212605 55 10 8.0 18.0 0.00 0.00 0.00 74 1007.6
20260505212105 55 3 9.0 18.0 0.00 0.00 0.00 74 1007.7
20260505211606 55 7 10.0 18.0 0.00 0.00 0.00 74 1007.9
20260505210605 54 2 8.0 18.0 0.00 0.00 0.00 75 1007.6
20260505210105 54 29 8.0 18.0 0.00 0.00 0.00 75 1007.4
20260505205605 55 18 7.0 22.0 0.00 0.00 0.00 75 1007.5
20260505204605 54 350 7.0 17.0 0.00 0.00 0.00 76 1007.4
20260505204105 54 23 7.0 16.0 0.00 0.00 0.00 76 1007.9
20260505203606 54 39 5.0 16.0 0.00 0.00 0.00 76 1008.7
20260505203105 55 15 8.0 17.0 0.00 0.00 0.00 75 1008.6
20260505202605 55 16 10.0 18.0 0.00 0.00 0.00 76 1008.0
20260505202104 55 25 7.0 18.0 0.00 0.00 0.00 76 1007.5
20260505201605 55 1 9.0 17.0 0.00 0.00 0.00 76 1007.5
20260505201105 55 18 9.0 18.0 0.00 0.00 0.00 76 1007.4
20260505200605 55 24 10.0 18.0 0.00 0.00 0.00 76 1007.3
20260505200105 55 7 7.0 16.0 0.00 0.00 0.00 77 1007.1
20260505195605 55 28 9.0 18.0 0.00 0.00 0.00 77 1007.4
20260505195105 55 37 9.0 18.0 0.00 0.00 0.00 78 1007.4
20260505194605 55 10 8.0 17.0 0.00 0.00 0.00 79 1007.2
20260505193606 55 15 8.0 17.0 0.00 0.00 0.00 79 1007.3
20260505193106 54 359 10.0 17.0 0.00 0.00 0.00 79 1007.1
20260505192605 54 21 6.0 14.0 0.00 0.00 0.00 80 1007.2
20260505191605 55 7 7.0 15.0 0.00 0.00 0.00 80 1007.1
20260505191105 55 23 5.0 16.0 0.00 0.00 0.00 80 1007.0
20260505185605 55 25 9.0 18.0 0.00 0.00 0.00 82 1007.1
20260505185105 55 14 9.0 18.0 0.00 0.00 0.00 82 1007.1
20260505184105 55 3 7.0 18.0 0.00 0.00 0.00 81 1006.8
20260505183105 56 15 7.0 17.0 0.00 0.00 0.00 80 1006.8
20260505182605 56 3 5.0 15.0 0.00 0.00 0.00 80 1006.8
20260505181605 57 14 6.0 16.0 0.00 0.00 0.00 79 1006.7
20260505181105 57 9 7.0 16.0 0.00 0.00 0.00 79 1006.4
20260505180605 57 7 9.0 15.0 0.00 0.00 0.00 79 1006.3
20260505180105 57 16 6.0 18.0 0.00 0.00 0.00 80 1006.1
20260505175605 57 346 10.0 18.0 0.00 0.00 0.00 80 1006.2
20260505175104 57 11 9.0 18.0 0.00 0.00 0.00 79 1006.1
20260505174605 57 33 7.0 18.0 0.00 0.00 0.00 80 1005.9
20260505174104 57 15 7.0 18.0 0.00 0.00 0.00 80 1005.7
20260505173105 57 21 7.0 18.0 0.00 0.00 0.00 81 1005.9
20260505172605 57 16 8.0 17.0 0.00 0.00 0.00 81 1005.8
20260505172105 57 20 7.0 16.0 0.00 0.00 0.00 81 1005.7
20260505171606 56 39 7.0 20.0 0.00 0.00 0.00 81 1005.7
20260505171105 56 345 9.0 20.0 0.00 0.00 0.00 82 1005.7
20260505170105 56 15 10.0 20.0 0.00 0.00 0.00 82 1005.2
20260505165105 57 5 9.0 16.0 0.00 0.00 0.00 82 1005.2
20260505164605 57 25 7.0 16.0 0.00 0.00 0.00 83 1005.2
20260505163106 57 11 9.0 20.0 0.00 0.00 0.00 83 1004.6
20260505162605 57 41 7.0 18.0 0.00 0.00 0.00 83 1004.5
20260505162105 57 60 5.0 18.0 0.00 0.00 0.00 84 1004.4
20260505161106 57 16 5.0 20.0 0.00 0.00 0.00 84 1004.0
20260505153105 60 23 10.0 21.0 0.00 0.00 0.00 84 1002.7
20260505152605 60 17 9.0 22.0 0.00 0.00 0.00 84 1002.6
20260505152105 60 24 11.0 22.0 0.00 0.00 0.00 84 1002.5
20260505151605 61 5 8.0 23.0 0.00 0.00 0.00 84 1002.4
20260505151105 62 18 10.0 23.0 0.00 0.00 0.00 83 1002.1
20260505150105 64 21 9.0 20.0 0.00 0.00 0.00 82 1001.7
20260505140605 73 109 0.0 1.0 0.00 0.00 0.00 78 1000.2
20260505124105 69 43 0.0 0.0 0.00 0.00 0.00 83 999.7
20260505123604 69 43 0.0 0.0 0.00 0.00 0.00 83 999.6
20260505123105 69 43 0.0 0.0 0.00 0.00 0.00 83 999.7
20260505122605 69 43 0.0 0.0 0.00 0.00 0.00 83 999.6
20260505122105 69 43 0.0 0.0 0.00 0.00 0.00 83 999.3
20260505121605 69 350 0.0 3.0 0.00 0.00 0.00 82 999.3
20260505121105 69 49 0.0 5.0 0.00 0.00 0.00 82 999.3
20260505120105 69 26 3.0 7.0 0.00 0.00 0.00 82 999.1
20260505115605 69 7 1.0 5.0 0.00 0.00 0.00 82 999.1
20260505115104 69 2 2.0 9.0 0.00 0.00 0.00 82 999.0
20260505114605 69 350 4.0 9.0 0.00 0.00 0.00 81 998.9
20260505114105 69 21 3.0 12.0 0.00 0.00 0.00 81 998.6
20260505113605 70 227 5.0 13.0 0.00 0.00 0.00 80 998.1
20260505113105 70 199 7.0 13.0 0.00 0.00 0.00 80 997.8
20260505112105 70 197 9.0 18.0 0.00 0.00 0.00 79 997.5
20260505111605 70 203 10.0 13.0 0.00 0.00 0.00 79 997.4
20260505111105 70 193 9.0 14.0 0.00 0.00 0.00 79 997.3
20260505110605 71 195 10.0 20.0 0.00 0.00 0.00 78 997.4
20260505110105 71 187 10.0 24.0 0.00 0.00 0.00 78 997.4
20260505102104 72 185 15.0 21.0 0.00 0.00 0.00 77 996.9
20260505101605 72 189 14.0 20.0 0.00 0.00 0.00 77 997.0
20260505101105 72 190 14.0 20.0 0.00 0.00 0.00 77 997.0
20260505100605 72 187 13.0 20.0 0.00 0.00 0.00 77 997.0
20260505100105 72 193 13.0 21.0 0.00 0.00 0.00 77 997.0
20260505095605 72 193 16.0 22.0 0.00 0.00 0.00 77 997.0
20260505095105 72 199 13.0 22.0 0.00 0.00 0.00 77 996.9
20260505094604 72 191 14.0 20.0 0.00 0.00 0.00 78 996.9
20260505094104 72 190 12.0 20.0 0.00 0.00 0.00 78 997.0
20260505093605 72 188 12.0 20.0 0.00 0.00 0.00 78 997.0
20260505093104 72 192 13.0 24.0 0.00 0.00 0.00 77 996.9
20260505092605 72 185 13.0 24.0 0.00 0.00 0.00 77 996.9
20260505092105 72 191 16.0 21.0 0.00 0.00 0.00 77 996.9
20260505091605 72 185 14.0 21.0 0.00 0.00 0.00 77 996.8
20260505091104 72 186 14.0 22.0 0.00 0.00 0.00 77 996.9
20260505090605 72 187 14.0 22.0 0.00 0.00 0.00 77 997.0
20260505090105 72 183 14.0 21.0 0.00 0.00 0.00 78 997.1
20260505085105 72 182 14.0 26.0 0.00 0.00 0.00 77 997.2
20260505084605 72 188 14.0 26.0 0.00 0.00 0.00 78 997.2
20260505083604 72 183 14.0 21.0 0.00 0.00 0.00 78 997.3
20260505083105 72 182 14.0 21.0 0.00 0.00 0.00 78 997.3
20260505082105 72 183 14.0 20.0 0.00 0.00 0.00 78 997.4
20260505081605 72 187 14.0 20.0 0.00 0.00 0.00 78 997.5
20260505081105 72 185 13.0 21.0 0.00 0.00 0.00 78 997.6
20260505080105 72 186 13.0 23.0 0.00 0.00 0.00 78 997.6
20260505075604 72 191 14.0 22.0 0.00 0.00 0.00 78 997.5
20260505075104 72 187 16.0 22.0 0.00 0.00 0.00 78 997.6
20260505074605 72 186 16.0 22.0 0.00 0.00 0.00 78 997.7
20260505074104 72 190 14.0 21.0 0.00 0.00 0.00 78 997.8
20260505073104 72 185 15.0 24.0 0.00 0.00 0.00 78 997.8
20260505072605 72 181 16.0 24.0 0.00 0.00 0.00 78 997.9
20260505072105 72 182 14.0 23.0 0.00 0.00 0.00 78 998.0
20260505071604 72 185 16.0 23.0 0.00 0.00 0.00 78 998.0
20260505071105 72 181 14.0 24.0 0.00 0.00 0.00 78 998.1
20260505070605 72 184 14.0 24.0 0.00 0.00 0.00 77 998.2
20260505070104 72 182 16.0 24.0 0.00 0.00 0.00 77 998.2
20260505065604 72 199 14.0 23.0 0.00 0.00 0.00 77 998.3
20260505065104 72 176 14.0 23.0 0.00 0.00 0.00 77 998.4
20260505064605 73 183 16.0 25.0 0.00 0.00 0.00 77 998.5
20260505064105 73 179 17.0 25.0 0.00 0.00 0.00 77 998.4
20260505063605 73 190 16.0 25.0 0.00 0.00 0.00 77 998.5
20260505063105 73 179 16.0 25.0 0.00 0.00 0.00 77 998.5
20260505062604 73 186 16.0 25.0 0.00 0.00 0.00 76 998.5
20260505062104 73 182 14.0 23.0 0.00 0.00 0.00 76 998.5
20260505061605 73 179 15.0 23.0 0.00 0.00 0.00 76 998.6
20260505060605 73 188 14.0 25.0 0.00 0.00 0.00 76 998.6
20260505060106 73 185 15.0 25.0 0.00 0.00 0.00 76 998.7
20260505055605 73 181 16.0 23.0 0.00 0.00 0.00 76 998.7
20260505055105 73 189 15.0 24.0 0.00 0.00 0.00 76 998.8
20260505054605 73 179 14.0 24.0 0.00 0.00 0.00 76 998.9
20260505054104 73 183 15.0 23.0 0.00 0.00 0.00 76 998.9
20260505053604 73 173 16.0 25.0 0.00 0.00 0.00 75 999.0
20260505053105 73 171 14.0 25.0 0.00 0.00 0.00 75 999.0
20260505052605 73 177 16.0 24.0 0.00 0.00 0.00 75 999.0
20260505052105 73 183 13.0 24.0 0.00 0.00 0.00 75 999.1
20260505051605 73 188 13.0 24.0 0.00 0.00 0.00 75 999.1
20260505050604 74 175 14.0 22.0 0.00 0.00 0.00 75 999.4
20260505041605 74 159 15.0 21.0 0.00 0.00 0.00 75 999.6
20260505041104 74 173 11.0 23.0 0.00 0.00 0.00 74 999.6
20260505040604 74 178 14.0 23.0 0.00 0.00 0.00 74 999.8
20260505035605 74 170 12.0 20.0 0.00 0.00 0.00 74 999.8
20260505034605 74 177 14.0 23.0 0.00 0.00 0.00 73 999.7
20260505033605 74 175 12.0 23.0 0.00 0.00 0.00 73 999.7
20260505033105 75 172 13.0 22.0 0.00 0.00 0.00 73 999.8
20260505032104 75 163 16.0 24.0 0.00 0.00 0.00 72 999.6
20260505031105 75 173 16.0 25.0 0.00 0.00 0.00 72 999.5
20260505030605 75 176 15.0 25.0 0.00 0.00 0.00 71 999.5
20260505025605 76 165 15.0 25.0 0.00 0.00 0.00 71 999.4
20260505025105 76 164 14.0 25.0 0.00 0.00 0.00 70 999.5
20260505024605 76 161 17.0 25.0 0.00 0.00 0.00 70 999.2
20260505024104 76 175 15.0 23.0 0.00 0.00 0.00 70 999.1
20260505022604 76 165 16.0 28.0 0.00 0.00 0.00 69 999.3
20260505022105 76 169 16.0 24.0 0.00 0.00 0.00 68 999.1
20260505020605 77 159 17.0 25.0 0.00 0.00 0.00 67 998.8
20260505015605 77 172 15.0 26.0 0.00 0.00 0.00 67 999.0
20260505014604 78 160 18.0 26.0 0.00 0.00 0.00 66 999.1
20260505014104 78 163 17.0 23.0 0.00 0.00 0.00 66 999.0
20260505013605 78 156 15.0 23.0 0.00 0.00 0.00 65 998.8
20260505013105 78 175 16.0 23.0 0.00 0.00 0.00 64 998.9
20260505012605 78 161 14.0 23.0 0.00 0.00 0.00 64 999.1
20260505010604 79 172 18.0 26.0 0.00 0.00 0.00 63 999.0
20260505010105 79 156 17.0 26.0 0.00 0.00 0.00 63 999.2
20260505005605 79 178 15.0 26.0 0.00 0.00 0.00 63 999.3
20260505004104 79 158 17.0 29.0 0.00 0.00 0.00 62 999.2
20260505003605 80 158 17.0 29.0 0.00 0.00 0.00 62 999.2
20260505002604 80 182 20.0 30.0 0.00 0.00 0.00 61 999.2
20260505002104 80 165 18.0 28.0 0.00 0.00 0.00 61 999.2
20260505001605 81 179 18.0 26.0 0.00 0.00 0.00 60 999.3
20260505001105 81 159 18.0 28.0 0.00 0.00 0.00 61 999.3
20260505000104 81 177 17.0 26.0 0.00 0.00 0.00 61 999.5
20260504235605 81 176 17.0 26.0 0.00 0.00 0.00 60 999.7
20260504235105 81 181 17.0 28.0 0.00 0.00 0.00 60 999.7
20260504234605 81 176 20.0 28.0 0.00 0.00 0.00 59 999.7
20260504234104 82 169 17.0 29.0 0.00 0.00 0.00 58 999.8
20260504233605 82 169 18.0 29.0 0.00 0.00 0.00 58 999.8
20260504233105 83 166 17.0 26.0 0.00 0.00 0.00 57 999.8
20260504232604 82 167 17.0 30.0 0.00 0.00 0.00 57 999.8
20260504232104 82 176 16.0 30.0 0.00 0.00 0.00 57 999.8
20260504231604 82 158 17.0 30.0 0.00 0.00 0.00 58 999.8
20260504231104 82 167 13.0 21.0 0.00 0.00 0.00 57 999.8
20260504230604 83 157 13.0 23.0 0.00 0.00 0.00 56 1000.0
20260504230104 83 176 16.0 26.0 0.00 0.00 0.00 56 1000.0
20260504225605 83 160 14.0 26.0 0.00 0.00 0.00 57 1000.1
20260504225104 83 165 14.0 26.0 0.00 0.00 0.00 56 1000.2
20260504224605 83 169 17.0 26.0 0.00 0.00 0.00 55 1000.2